カタログに戻る

BLOCK DM-SL DEB

LostHEO
NORAD 34838·DEBRIS· XX

打ち上げ Apr 20, 2009 から Sea Launch Platform

Loading…

次のパス (今後24時間)

TLE

古いSource: Space-Track

元期: Apr 21, 2009, 07:16 UTC

1 34838U 09020E   09111.30317163 -.00000036  00000-0  10000-3 0  9997
2 34838   0.0594 107.2180 4715582 205.2182 246.6222  1.81423006    17

AllMySatでBLOCK DM-SL DEBをリアルタイム追跡

Download on the App Store